Muskegon, MI

2:09 AM EDT on October 21, 2019 (GMT -0400)
Muskegon County

Weather History for KMKG - August, 2019

Change the Weather History Date:

Monday, August 19, 2019

  Actual Average Record
Temperature  
Mean Temperature 74 °F 70 °F  
Max Temperature 82 °F 79 °F 94 °F (1947)
Min Temperature 66 °F 61 °F 45 °F (1943)
Degree Days  
Heating Degree Days 0 1  
Month to date heating degree days 0 2  
Since 1 June heating degree days 58 79  
Since 1 July heating degree days 1 13  
Cooling Degree Days 10 5  
Month to date cooling degree days 129 112  
Year to date cooling degree days 500 448  
Since 1 June cooling degree days 497 419  
Growing Degree Days 24 (Base 50)    
Moisture  
Dew Point 64 °F    
Average Humidity 71    
Maximum Humidity 93    
Minimum Humidity 51    
Precipitation  
Precipitation 0.00 in 0.10 in 1.52 in (1905)
Month to date precipitation 1.33 2.06  
Year to date precipitation 26.30 19.25  
Snow  
Snow 0.00 in 0.00 in - ()
Month to date snowfall 0.0 0.0  
Since 1 June snowfall 0.0 0.0  
Since 1 July snowfall 0.0 0.0  
Snow Depth 0.00 in    
Sea Level Pressure  
Sea Level Pressure 29.99 in    
Wind  
Wind Speed 4 mph ()    
Max Wind Speed 12 mph    
Max Gust Speed 16 mph    
Visibility 10.0 miles    
Events      
T = Trace of Precipitation, MM = Missing Value Source: Averaged Metar Reports

Daily Weather History Graph

Daily Weather History Graph

Search for Another Location

Airport or City:

Astronomy

Aug. 19, 2019 Rise Set
Actual Time 6:54 AM EDT 8:41 PM EDT
Civil Twilight 6:24 AM EDT 9:12 PM EDT
Nautical Twilight 5:47 AM EDT 9:48 PM EDT
Astronomical Twilight 5:07 AM EDT 10:28 PM EDT
Moon 10:56 PM EDT (8/19) 10:40 AM EDT (8/19)
Length of Visible Light 14h 47m
Length of Day
13h 47m
Waning Gibbous, 85% of the Moon is Illuminated
Aug 19
Waning Gibbous
Aug 23
Last Quarter
Aug 30
New
Sep 5
First Quarter
Sep 14
Full

Hourly Weather History & Observations

Time (EDT) Temp. Heat Index Dew Point Humidity Pressure Visibility Wind Dir Wind Speed Gust Speed Precip Events Conditions
12:55 AM 66.9 °F - 63.0 °F 87% 29.91 in 10.0 mi WSW 4.6 mph - N/A   Clear
1:55 AM 66.9 °F - 64.0 °F 90% 29.91 in 10.0 mi WSW 4.6 mph - N/A   Clear
2:55 AM 69.1 °F - 64.0 °F 84% 29.92 in 10.0 mi West 3.5 mph - N/A   Clear
3:55 AM 70.0 °F - 63.0 °F 78% 29.92 in 10.0 mi West 5.8 mph - N/A   Clear
4:55 AM 72.0 °F - 64.0 °F 76% 29.93 in 10.0 mi WNW 6.9 mph - N/A   Clear
5:55 AM 71.1 °F - 66.0 °F 84% 29.94 in 10.0 mi WNW 6.9 mph - N/A   Partly Cloudy
6:55 AM 70.0 °F - 64.9 °F 84% 29.96 in 10.0 mi Calm Calm - N/A   Partly Cloudy
7:55 AM 68.0 °F - 64.0 °F 87% 29.99 in 10.0 mi Calm Calm - N/A   Partly Cloudy
8:55 AM 73.0 °F - 64.9 °F 76% 30.01 in 10.0 mi NE 5.8 mph - N/A   Clear
9:55 AM 75.0 °F - 64.9 °F 71% 30.01 in 10.0 mi Calm Calm - N/A   Partly Cloudy
10:55 AM 78.1 °F - 63.0 °F 60% 30.02 in 10.0 mi Calm Calm - N/A   Partly Cloudy
11:55 AM 80.1 °F 81.2 °F 62.1 °F 54% 30.03 in 10.0 mi WNW 4.6 mph - N/A   Partly Cloudy
12:55 PM 81.0 °F 81.9 °F 62.1 °F 52% 30.03 in 10.0 mi Variable 6.9 mph - N/A   Partly Cloudy
1:55 PM 82.0 °F 83.0 °F 62.1 °F 51% 30.03 in 10.0 mi WSW 8.1 mph - N/A   Partly Cloudy
2:55 PM 81.0 °F 82.2 °F 63.0 °F 54% 30.03 in 10.0 mi SW 10.4 mph - N/A   Partly Cloudy
3:55 PM 81.0 °F 81.9 °F 62.1 °F 52% 30.02 in 10.0 mi WSW 9.2 mph - N/A   Partly Cloudy
4:55 PM 80.1 °F 81.5 °F 63.0 °F 56% 30.02 in 10.0 mi SW 8.1 mph - N/A   Clear
5:55 PM 79.0 °F - 64.0 °F 60% 30.02 in 10.0 mi SW 9.2 mph - N/A   Partly Cloudy
6:55 PM 78.1 °F - 64.0 °F 62% 30.02 in 10.0 mi WSW 4.6 mph - N/A   Partly Cloudy
7:55 PM 77.0 °F - 64.9 °F 66% 30.01 in 10.0 mi NW 3.5 mph - N/A   Scattered Clouds
8:55 PM 72.0 °F - 64.9 °F 78% 30.01 in 10.0 mi Calm Calm - N/A   Mostly Cloudy
9:55 PM 70.0 °F - 64.9 °F 84% 30.02 in 10.0 mi Calm Calm - N/A   Mostly Cloudy
10:55 PM 69.1 °F - 64.0 °F 84% 30.03 in 10.0 mi SE 3.5 mph - N/A   Mostly Cloudy
11:55 PM 69.1 °F - 64.0 °F 84% 30.03 in 10.0 mi ENE 3.5 mph - N/A   Mostly Cloudy